Location: Karlsruhe
(49.0131°N, 8.3874°E)
Time: 08:27:21
(UTC+01:00)

ISS - Pass Details

Date: 11 January 2018
Orbit: 402 x 407 km, 51.6° (Epoch: 24 January)

Event Time Altitude Azimuth Distance (km) Brightness Sun altitude
Exits shadow 05:40:49 32° 89° (E) 720 -2.0 -24.9°
Drops below altitude 10° 05:42:46 10° 98° (E) 1,468 0.1 -24.6°
Sets 05:44:51 0° 101° (ESE) 2,328 1.4 -24.3°
